Location: Carnières
(50.1682°N, 3.3474°E)
Time: 02:15:36
(UTC+00:00)

Cosmos 841 Rocket - Pass Details

Date: 23 May 2024
Orbit: 744 x 770 km, 74.0° (Epoch: 21 June)

Event Time Altitude Azimuth Distance (km) Brightness Sun altitude
Rises 02:05:51 0° 329° (NNW) 3,233 7.1 -12.5°
Reaches altitude 10° 02:08:26 10° 319° (NW) 2,307 6.2 -12.3°
Maximum altitude 02:12:58 31° 259° (W) 1,335 4.4 -11.8°
Enters shadow 02:16:26 15° 206° (SSW) 1,962 5.0 -11.5°
